Weather History for Dunkirk, NY

Change the Weather History Date:

Saturday, July 27, 2013

  Actual Average Record
Temperature  
Mean Temperature 66 °F -  
Max Temperature 75 °F 79 °F 94 °F (1941)
Min Temperature 57 °F 61 °F 45 °F (2001)
Cooling Degree Days 1    
Growing Degree Days 16 (Base 50)    
Moisture  
Dew Point 60 °F    
Average Humidity 74    
Maximum Humidity 94    
Minimum Humidity 57    
Precipitation  
Precipitation 0.46 in - - ()
Sea Level Pressure  
Sea Level Pressure 29.89 in    
Wind  
Wind Speed 11 mph (SSW)    
Max Wind Speed 17 mph    
Max Gust Speed 29 mph    
Visibility 9 miles    
Events Rain    
Averages and records for this station are not official NWS values.
T = Trace of Precipitation, MM = Missing Value Source: NWS Daily Summary

Daily Weather History Graph

Daily Weather History Graph

Search for Another Location

Airport:

Trip Planner

Search our weather history database for the weather conditions in past years. The results will help you decide how hot, cold, wet, or windy it might be!

Date:

Astronomy

Jul. 27, 2013 Rise Set
Actual Time 6:04 AM EDT 8:42 PM EDT
Civil Twilight 5:32 AM EDT 9:14 PM EDT
Nautical Twilight 4:51 AM EDT 9:54 PM EDT
Astronomical Twilight 4:05 AM EDT 10:40 PM EDT
Moon 11:19 PM EDT (7/27) 11:51 AM EDT (7/27)
Length of Visible Light 15h 42m
Length of Day
14h 37m
Waning Gibbous, 71% of the Moon is Illuminated
Jul 27
Waning Gibbous
Jul 29
Last Quarter
Aug 6
New
Aug 14
First Quarter
Aug 20
Full

Hourly Weather History & Observations

Time (EDT) Temp. Dew Point Humidity Pressure Visibility Wind Dir Wind Speed Gust Speed Precip Events Conditions
12:53 AM 57.9 °F 54.0 °F 87% 29.98 in 10.0 mi SSW 8.1 mph - N/A   Clear
1:53 AM 59.0 °F 55.0 °F 87% 29.96 in 10.0 mi SSW 9.2 mph - N/A   Clear
2:53 AM 60.1 °F 55.9 °F 86% 29.95 in 10.0 mi South 11.5 mph - N/A   Clear
3:53 AM 66.9 °F 55.0 °F 66% 29.93 in 10.0 mi South 13.8 mph - N/A   Clear
4:53 AM 66.0 °F 55.0 °F 68% 29.93 in 10.0 mi South 10.4 mph - N/A   Clear
5:53 AM 66.9 °F 55.0 °F 66% 29.93 in 10.0 mi South 12.7 mph - N/A   Clear
6:53 AM 69.1 °F 55.0 °F 61% 29.93 in 10.0 mi South 13.8 mph - N/A   Clear
7:53 AM 70.0 °F 55.0 °F 59% 29.93 in 10.0 mi South 13.8 mph 21.9 mph N/A   Clear
8:53 AM 72.0 °F 57.0 °F 59% 29.93 in 10.0 mi South 15.0 mph - N/A   Clear
9:53 AM 73.9 °F 57.9 °F 57% 29.92 in 10.0 mi SSW 13.8 mph - N/A   Clear
10:53 AM 73.9 °F 59.0 °F 59% 29.91 in 10.0 mi SSW 15.0 mph - N/A   Clear
11:53 AM 75.0 °F 60.1 °F 60% 29.92 in 10.0 mi South 15.0 mph - N/A   Clear
12:53 PM 72.0 °F 61.0 °F 68% 29.91 in 10.0 mi SSW 12.7 mph - 0.00 in Rain Light Rain
1:53 PM 71.1 °F 63.0 °F 75% 29.91 in 8.0 mi SSW 13.8 mph - 0.00 in Rain Light Rain
2:53 PM 73.0 °F 63.0 °F 71% 29.90 in 10.0 mi South 12.7 mph 28.8 mph 0.00 in Rain Light Rain
3:53 PM 72.0 °F 62.1 °F 71% 29.87 in 10.0 mi SW 4.6 mph - 0.00 in   Mostly Cloudy
4:53 PM 73.0 °F 62.1 °F 68% 29.86 in 10.0 mi SW 3.5 mph - N/A   Clear
5:53 PM 73.9 °F 60.1 °F 62% 29.83 in 10.0 mi SSW 12.7 mph - N/A   Partly Cloudy
6:53 PM 73.0 °F 61.0 °F 66% 29.83 in 10.0 mi SSW 12.7 mph - N/A   Overcast
7:53 PM 72.0 °F 62.1 °F 71% 29.83 in 10.0 mi South 12.7 mph - N/A   Overcast
8:53 PM 68.0 °F 64.0 °F 87% 29.81 in 8.0 mi South 11.5 mph - 0.05 in Rain Light Rain
9:53 PM 68.0 °F 64.0 °F 87% 29.83 in 2.0 mi South 11.5 mph 19.6 mph 0.16 in Rain Heavy Rain
10:02 PM 66.2 °F 64.4 °F 94% 29.83 in 1.8 mi SSE 12.7 mph 19.6 mph 0.13 in Rain Heavy Rain
10:10 PM 66.2 °F 64.4 °F 94% 29.83 in 2.5 mi South 10.4 mph - 0.18 in Rain Heavy Rain
10:24 PM 68.0 °F 64.4 °F 88% 29.83 in 10.0 mi South 12.7 mph - 0.25 in   Overcast
10:53 PM 68.0 °F 64.0 °F 87% 29.81 in 10.0 mi SSW 11.5 mph - 0.25 in   Overcast
11:53 PM 68.0 °F 64.0 °F 87% 29.81 in 10.0 mi SSW 17.3 mph 23.0 mph N/A   Mostly Cloudy